TimeEST,TemperatureF,Dew PointF,Humidity,Sea Level PressureIn,VisibilityMPH,Wind Direction,Wind SpeedMPH,Gust SpeedMPH,PrecipitationIn,Events,Conditions,WindDirDegrees,DateUTC
12:51 AM,41.0,25.0,53,29.99,10.0,South,4.6,-,N/A,,Mostly Cloudy,180,2013-12-29 05:51:00
1:51 AM,41.0,25.0,53,29.99,10.0,South,5.8,-,N/A,,Overcast,190,2013-12-29 06:51:00
2:51 AM,41.0,25.0,53,29.98,10.0,South,8.1,-,N/A,,Overcast,190,2013-12-29 07:51:00
3:51 AM,41.0,24.1,51,29.95,10.0,South,8.1,-,N/A,,Overcast,170,2013-12-29 08:51:00
4:51 AM,41.0,23.0,49,29.93,10.0,South,5.8,-,N/A,,Overcast,180,2013-12-29 09:51:00
5:51 AM,41.0,23.0,49,29.91,10.0,South,5.8,-,N/A,,Overcast,180,2013-12-29 10:51:00
6:51 AM,41.0,23.0,49,29.88,10.0,SE,5.8,-,N/A,,Overcast,140,2013-12-29 11:51:00
7:51 AM,39.9,23.0,51,29.87,10.0,SSE,5.8,-,N/A,,Overcast,150,2013-12-29 12:51:00
8:51 AM,42.1,24.1,49,29.85,10.0,SE,13.8,-,0.00,Rain,Light Rain,140,2013-12-29 13:51:00
9:51 AM,39.9,28.0,63,29.81,10.0,SE,10.4,18.4,0.00,Rain,Light Rain,140,2013-12-29 14:51:00
10:51 AM,41.0,34.0,76,29.78,10.0,South,4.6,-,0.00,,Overcast,170,2013-12-29 15:51:00
11:51 AM,39.9,36.0,86,29.75,10.0,SSW,3.5,-,0.00,Rain,Light Rain,210,2013-12-29 16:51:00
12:09 PM,39.2,35.6,87,29.72,9.0,WSW,3.5,-,0.00,Rain,Light Rain,250,2013-12-29 17:09:00
12:51 PM,39.9,37.0,89,29.73,5.0,West,3.5,-,0.02,Rain,Light Rain,270,2013-12-29 17:51:00
1:28 PM,39.2,37.4,93,29.71,3.0,WNW,4.6,-,0.03,Rain,Light Rain,300,2013-12-29 18:28:00
1:51 PM,39.0,36.0,89,29.73,6.0,Calm,Calm,-,0.05,Rain,Light Rain,0,2013-12-29 18:51:00
2:32 PM,39.2,37.4,93,29.69,6.0,WSW,3.5,-,0.02,Rain,Light Rain,240,2013-12-29 19:32:00
2:51 PM,39.9,37.9,93,29.70,6.0,SW,5.8,-,0.02,Rain,Light Rain,220,2013-12-29 19:51:00
3:10 PM,39.2,37.4,93,29.68,6.0,SW,6.9,-,0.00,Rain,Light Rain,230,2013-12-29 20:10:00
3:51 PM,39.9,39.0,97,29.71,6.0,WSW,9.2,-,0.01,Rain,Light Rain,240,2013-12-29 20:51:00
4:51 PM,41.0,39.0,93,29.72,5.0,WSW,9.2,-,0.00,Rain,Light Rain,250,2013-12-29 21:51:00
5:51 PM,39.9,37.9,93,29.72,10.0,WSW,11.5,-,0.01,,Overcast,240,2013-12-29 22:51:00
6:06 PM,39.2,37.4,93,29.71,10.0,WSW,11.5,-,N/A,,Overcast,250,2013-12-29 23:06:00
6:51 PM,39.0,35.1,86,29.76,10.0,West,11.5,-,N/A,,Mostly Cloudy,260,2013-12-29 23:51:00
7:09 PM,39.2,35.6,87,29.75,10.0,West,17.3,24.2,N/A,,Overcast,270,2013-12-30 00:09:00
7:25 PM,39.2,35.6,87,29.75,10.0,West,11.5,21.9,N/A,,Overcast,260,2013-12-30 00:25:00
7:42 PM,39.2,35.6,87,29.76,10.0,West,11.5,-,N/A,,Overcast,260,2013-12-30 00:42:00
7:51 PM,37.9,35.1,89,29.79,10.0,West,10.4,-,N/A,,Overcast,260,2013-12-30 00:51:00
8:51 PM,39.0,35.1,86,29.80,8.0,WSW,9.2,-,N/A,,Overcast,240,2013-12-30 01:51:00
9:17 PM,39.2,35.6,87,29.77,4.0,WSW,13.8,20.7,0.00,Rain,Light Rain,250,2013-12-30 02:17:00
9:32 PM,37.4,35.6,93,29.78,4.0,WSW,10.4,-,0.00,Rain,Light Rain,250,2013-12-30 02:32:00
9:51 PM,37.9,35.1,89,29.81,3.0,West,12.7,21.9,0.00,Rain,Light Rain,280,2013-12-30 02:51:00
10:51 PM,33.1,30.9,92,29.84,3.0,NNW,16.1,-,0.02,Rain,Light Rain,340,2013-12-30 03:51:00
11:37 PM,30.2,28.4,93,29.84,7.0,NNW,13.8,-,0.00,,Light Freezing Drizzle,330,2013-12-30 04:37:00
11:51 PM,30.0,28.0,92,29.88,4.0,NNW,16.1,-,0.00,Snow,Light Freezing Drizzle,330,2013-12-30 04:51:00